Location: The Saddle
(36.8333°N, 80.3417°W)
Time: 06:27:35
(UTC-04:00)

Courier 1B - Pass Details

Date: 27 September 2024
Orbit: 962 x 1208 km, 28.3° (Epoch: 05 October)

Event Time Altitude Azimuth Distance (km) Brightness Sun altitude
Rises 09:22:28 0° 220° (SW) 3,645 10.3 24.2°
Reaches altitude 10° 09:25:48 10° 204° (SSW) 2,686 9.9 24.8°
Maximum altitude 09:30:25 21° 158° (SSE) 2,021 10.1 25.7°
Drops below altitude 10° 09:35:02 10° 112° (ESE) 2,698 11.7 26.5°
Sets 09:38:23 0° 97° (E) 3,668 11.6 27.1°
